Location: Taukkyan
(23.1052°N, 94.0030°E)
Time: 11:49:45
(UTC+00:00)

Cosmos 1300 - Pass Details

Date: 06 July 2020
Orbit: 511 x 514 km, 82.5° (Epoch: 14 August)

Event Time Altitude Azimuth Distance (km) Brightness Sun altitude
Rises 13:17:20 0° 7° (N) 2,624 6.6 -9.7°
Reaches altitude 10° 13:19:37 10° 17° (NNE) 1,735 5.5 -10.2°
Maximum altitude 13:23:05 33° 82° (E) 874 3.4 -10.9°
Enters shadow 13:25:43 15° 142° (SE) 1,437 4.4 -11.4°
